Вернуться в каталог

THORAD AGENA D DEB

АктивенSSO
NORAD 4920·DEBRIS·🇺🇸 United States

Запущен Apr 8, 1970 с Vandenberg Space Force Base

Loading…

Ближайшие Пролёты (ближайшие 24 часа)

TLE

СвежийSource: Space-Track

Эпоха: Sep 14, 2026, 22:22 UTC

1 04920U 70025FS  26257.93244278  .00000399  00000-0  66899-3 0  9992
2 04920  99.4254 147.5389 0089532 141.6724 282.5203 13.50581330765682

Отслеживайте THORAD AGENA D DEB в реальном времени с AllMySat

Download on the App Store